RYR98FC EPPO-LDDU

Flight info

Callsign RYR98FC
Flight time N/A
Altitude 37000
Route XIDNA2B XIDNA DCT MIKOV DCT STEIN DCT KOPRY DCT NETKO NETKO1H
Aircraft B738/M-SDE2E3FGHIRWXY/LB1

Departure

Time 2026-04-29 21:26
Airport Poznań-Ławica Airport (EPPO)

Arrival

Time N/A
Airport Dubrovnik Ruđer Bošković Airport (LDDU)
Time Latitude Longitude Altitude Speed Heading
2026-04-29 20:52 52.41589 16.82913 287 ft 0 kts 192°
2026-04-29 21:17 52.41603 16.82918 287 ft 4 kts 191°
2026-04-29 21:17 52.41629 16.82919 287 ft 4 kts 165°
2026-04-29 21:18 52.41651 16.82906 287 ft 1 kts 154°
2026-04-29 21:18 52.41652 16.82905 287 ft 1 kts 154°
2026-04-29 21:22 52.41651 16.82914 287 ft 1 kts 103°
2026-04-29 21:22 52.41647 16.82963 287 ft 7 kts 99°
2026-04-29 21:22 52.41631 16.83087 287 ft 15 kts 102°
2026-04-29 21:22 52.41604 16.83284 287 ft 20 kts 102°
2026-04-29 21:23 52.41574 16.83507 287 ft 20 kts 102°
2026-04-29 21:23 52.41564 16.83725 287 ft 19 kts 93°
2026-04-29 21:23 52.41589 16.83915 291 ft 17 kts 42°
2026-04-29 21:23 52.41686 16.84011 287 ft 16 kts 20°
2026-04-29 21:24 52.41763 16.84059 291 ft 11 kts 21°
2026-04-29 21:24 52.41828 16.84050 288 ft 11 kts 300°
2026-04-29 21:24 52.41835 16.84016 288 ft 0 kts 288°
2026-04-29 21:25 52.41848 16.83948 291 ft 28 kts 288°
2026-04-29 21:25 52.41982 16.83263 285 ft 97 kts 288°
2026-04-29 21:25 52.42247 16.81892 288 ft 153 kts 288°
2026-04-29 21:26 52.42599 16.80058 592 ft 179 kts 287°
2026-04-29 21:26 52.42959 16.78003 1162 ft 197 kts 286°
2026-04-29 21:26 52.43309 16.75782 1792 ft 203 kts 288°
2026-04-29 21:26 52.43723 16.73605 2622 ft 196 kts 289°
2026-04-29 21:27 52.44129 16.71520 3525 ft 187 kts 294°
2026-04-29 21:27 52.44591 16.69476 4064 ft 200 kts 292°
2026-04-29 21:27 52.45063 16.67231 4360 ft 216 kts 291°
2026-04-29 21:27 52.45550 16.64797 4656 ft 231 kts 290°
2026-04-29 21:28 52.46040 16.62221 5051 ft 241 kts 290°
2026-04-29 21:28 52.46566 16.59489 5348 ft 260 kts 290°
2026-04-29 21:28 52.47128 16.56631 6055 ft 261 kts 290°
2026-04-29 21:28 52.47599 16.53801 6758 ft 259 kts 280°
2026-04-29 21:29 52.47341 16.50908 7034 ft 262 kts 247°
2026-04-29 21:29 52.46209 16.48568 7504 ft 276 kts 218°
2026-04-29 21:29 52.44452 16.47205 7538 ft 283 kts 195°
2026-04-29 21:29 52.42525 16.46606 7521 ft 282 kts 179°
2026-04-29 21:30 52.40659 16.47303 7529 ft 273 kts 149°
2026-04-29 21:30 52.39210 16.49271 7520 ft 274 kts 124°
2026-04-29 21:30 52.38307 16.51977 7714 ft 272 kts 105°
2026-04-29 21:30 52.37769 16.54931 8374 ft 267 kts 102°
2026-04-29 21:31 52.37246 16.57869 9082 ft 270 kts 102°
2026-04-29 21:31 52.36694 16.60854 9721 ft 277 kts 103°
2026-04-29 21:31 52.35942 16.63787 10366 ft 287 kts 122°
2026-04-29 21:31 52.34487 16.66109 10858 ft 304 kts 142°
2026-04-29 21:32 52.32490 16.67642 11021 ft 330 kts 158°
2026-04-29 21:32 52.30255 16.68841 11336 ft 345 kts 160°
2026-04-29 21:32 52.27938 16.70001 11879 ft 351 kts 160°
2026-04-29 21:32 52.25590 16.71168 12526 ft 355 kts 160°
2026-04-29 21:33 52.23219 16.72359 13195 ft 358 kts 159°
2026-04-29 21:33 52.20827 16.73576 13845 ft 363 kts 159°
2026-04-29 21:33 52.18408 16.74821 14493 ft 367 kts 159°
2026-04-29 21:33 52.15957 16.76089 15114 ft 371 kts 158°
2026-04-29 21:34 52.13486 16.77371 15750 ft 375 kts 158°
2026-04-29 21:34 52.10983 16.78676 16398 ft 379 kts 158°
2026-04-29 21:34 52.08460 16.79989 17023 ft 384 kts 158°
2026-04-29 21:34 52.05899 16.81319 17625 ft 388 kts 158°
2026-04-29 21:35 52.03310 16.82661 18264 ft 392 kts 158°
2026-04-29 21:35 52.00705 16.84010 18903 ft 395 kts 158°
2026-04-29 21:35 51.98072 16.85373 19441 ft 400 kts 158°
2026-04-29 21:35 51.95416 16.86746 20028 ft 402 kts 158°
2026-04-29 21:36 51.92743 16.88125 20558 ft 405 kts 157°
2026-04-29 21:36 51.90038 16.89522 21057 ft 410 kts 157°
2026-04-29 21:36 51.87312 16.90927 21564 ft 414 kts 157°
2026-04-29 21:36 51.84552 16.92346 22071 ft 418 kts 156°
2026-04-29 21:37 51.81772 16.93774 22576 ft 421 kts 156°
2026-04-29 21:37 51.78968 16.95213 23063 ft 425 kts 156°
2026-04-29 21:37 51.76136 16.96665 23552 ft 429 kts 156°
2026-04-29 21:37 51.73279 16.98126 24038 ft 432 kts 156°
2026-04-29 21:38 51.70315 16.99250 24414 ft 444 kts 166°
2026-04-29 21:38 51.67205 16.99583 24814 ft 454 kts 177°
2026-04-29 21:38 51.64034 16.99232 25214 ft 459 kts 180°
2026-04-29 21:38 51.60836 16.98757 25578 ft 464 kts 180°
2026-04-29 21:39 51.57615 16.98250 25936 ft 467 kts 180°
2026-04-29 21:39 51.54366 16.97744 26295 ft 470 kts 180°
2026-04-29 21:39 51.51101 16.97253 26667 ft 474 kts 180°
2026-04-29 21:39 51.47804 16.96777 27031 ft 476 kts 180°
2026-04-29 21:40 51.44493 16.96314 27372 ft 480 kts 179°
2026-04-29 21:40 51.41157 16.95856 27717 ft 482 kts 179°
2026-04-29 21:40 51.37800 16.95402 28045 ft 486 kts 179°
2026-04-29 21:40 51.34423 16.94948 28379 ft 489 kts 179°
2026-04-29 21:41 51.31067 16.94495 28770 ft 491 kts 179°
2026-04-29 21:41 51.27615 16.94029 29169 ft 492 kts 179°
2026-04-29 21:41 51.24197 16.93568 29532 ft 494 kts 179°
2026-04-29 21:41 51.20807 16.93112 29817 ft 497 kts 179°
2026-04-29 21:42 51.17342 16.92647 30084 ft 501 kts 179°
2026-04-29 21:42 51.13864 16.92180 30369 ft 504 kts 179°
2026-04-29 21:42 51.10360 16.91709 30655 ft 506 kts 179°
2026-04-29 21:42 51.06848 16.91237 30917 ft 507 kts 179°
2026-04-29 21:43 51.03336 16.90769 31240 ft 507 kts 179°
2026-04-29 21:43 50.99827 16.90298 31658 ft 504 kts 180°
2026-04-29 21:43 50.96346 16.89829 32067 ft 502 kts 180°
2026-04-29 21:43 50.92902 16.89368 32429 ft 500 kts 180°
2026-04-29 21:44 50.89404 16.88902 32766 ft 500 kts 180°
2026-04-29 21:44 50.85949 16.88444 33113 ft 498 kts 180°
2026-04-29 21:44 50.82504 16.87988 33483 ft 496 kts 181°
2026-04-29 21:44 50.79071 16.87533 33871 ft 494 kts 181°
2026-04-29 21:45 50.75654 16.87081 34249 ft 491 kts 181°
2026-04-29 21:45 50.72249 16.86631 34541 ft 490 kts 181°
2026-04-29 21:45 50.68848 16.86184 34732 ft 491 kts 182°
2026-04-29 21:45 50.65438 16.85738 34900 ft 493 kts 182°
2026-04-29 21:46 50.63174 16.85441 35043 ft 493 kts 182°